GFSCGP_850_spd_159.txt.gz
Wind_Speed
18 12 15 19 16 19 21 24 24 25 20 17 25 24 24 24 35 25 39 27 35 39 35 30 31 29 29 24 28 33 31 31 35 31 23 22 17 17 14 13 14 11 11 10
13 17 20 21 17 23 23 24 25 24 23 21 21 26 29 23 28 35 29 32 30 34 37 37 36 32 30 29 32 35 31 37 36 29 25 22 19 17 15 14 13 12 11 11
17 19 19 13 17 23 19 20 23 24 26 23 20 24 25 27 27 34 32 24 28 28 32 35 36 35 31 30 35 36 35 38 39 30 27 26 22 20 17 15 13 11 9 8
16 21 19 20 22 18 21 22 22 24 21 16 21 19 24 26 25 25 29 32 31 30 29 30 36 29 33 31 32 35 39 38 36 32 29 29 27 23 17 20 17 11 8 6
21 22 12 16 14 13 20 20 21 17 22 20 25 15 19 26 29 26 25 34 35 34 32 32 33 33 33 31 38 34 38 39 37 31 27 28 24 27 24 18 12 8 7 10
24 28 19 20 19 12 15 16 20 20 15 17 24 21 19 23 31 31 29 41 41 39 34 33 32 34 30 32 37 37 40 36 39 36 32 29 29 28 23 17 15 11 7 6
13 18 21 20 15 15 17 14 7 7 10 16 19 22 21 25 28 29 29 37 40 42 35 35 33 34 33 33 38 42 41 39 34 32 32 29 23 21 18 16 15 13 11 10
9 6 4 3 13 10 16 16 10 11 9 11 17 19 20 28 27 22 22 31 38 40 35 35 34 35 37 36 41 38 38 36 34 32 31 28 26 23 21 17 18 18 15 14
7 6 6 12 12 12 11 18 19 22 22 16 15 12 25 21 28 23 21 20 36 36 38 35 35 37 40 42 38 41 38 40 38 32 30 30 26 24 23 24 22 17 14 16
2 9 10 11 18 17 18 4 6 10 9 17 15 15 13 19 27 14 17 12 17 38 37 36 36 38 47 43 38 38 41 44 39 34 30 28 28 28 23 20 18 18 16 13
2 5 7 7 9 17 8 7 10 11 14 12 7 8 14 12 26 23 17 19 20 34 36 38 36 38 52 41 41 40 40 42 37 33 32 32 30 26 22 21 18 14 14 14
5 5 12 23 23 21 20 16 15 9 12 12 14 6 17 22 19 23 21 26 27 26 38 38 35 30 21 41 40 42 43 45 38 35 39 35 31 24 23 20 16 17 15 11
1 5 7 10 9 15 12 14 13 19 17 18 8 6 9 19 9 25 22 26 29 35 39 39 41 34 38 43 43 43 46 48 45 43 38 34 30 25 23 21 20 18 14 10
11 5 13 14 20 2 4 11 9 15 10 19 17 5 17 15 16 14 23 26 22 34 36 41 41 39 44 42 48 49 47 45 40 38 36 34 29 26 24 21 19 16 12 9
2 5 13 19 24 23 21 19 19 16 20 20 16 4 9 15 13 19 23 20 26 28 40 39 43 41 44 42 45 46 45 42 39 38 35 29 27 25 23 21 19 15 13 11
2 5 15 21 20 19 19 19 19 18 16 16 21 14 9 15 18 21 20 21 31 33 34 38 45 45 43 43 44 46 45 41 35 35 31 28 28 26 24 21 18 16 15 14
3 3 6 10 7 1 6 15 18 18 18 14 15 2 5 15 15 18 29 25 34 31 34 42 45 43 41 42 46 47 46 42 36 32 31 31 29 26 22 20 18 16 15 14
3 2 3 7 11 4 9 18 4 9 9 3 11 8 4 10 18 25 39 43 36 38 41 41 43 43 43 45 47 50 46 38 36 34 32 29 26 24 21 19 17 16 15 15
10 3 4 4 4 1 14 16 10 9 6 14 9 2 3 8 2 11 30 40 41 42 43 45 47 48 50 50 47 44 39 37 35 32 29 26 24 23 21 20 19 17 16 16
13 10 3 4 3 6 8 20 21 12 4 8 4 4 7 13 2 5 25 44 44 47 48 49 50 52 54 44 43 43 40 36 34 31 29 26 23 22 22 20 19 18 16 15
8 6 6 9 3 5 15 25 15 4 7 19 9 10 7 4 8 16 32 44 46 49 51 51 51 49 48 46 43 43 39 36 32 31 29 26 24 23 22 21 18 17 15 14
5 7 5 6 5 3 30 15 7 12 26 7 18 17 24 26 25 26 33 44 49 50 50 51 51 43 38 39 43 42 39 33 32 30 29 27 24 22 21 20 18 16 14 12
2 3 4 4 4 10 17 18 21 28 2 17 20 20 29 29 26 28 34 42 48 49 50 45 45 44 39 35 34 40 34 32 31 30 28 27 24 22 20 18 17 15 12 10
5 3 3 6 1 11 18 24 26 16 17 18 19 26 29 30 31 32 35 40 45 50 47 43 43 40 38 33 33 34 33 32 31 31 29 26 25 23 20 18 16 16 15 10
2 6 6 4 4 15 11 20 19 15 20 25 25 26 32 34 31 35 35 37 43 45 42 39 39 38 36 34 33 32 31 31 31 30 29 27 25 23 21 20 17 18 17 13
3 3 3 3 11 8 9 16 11 16 21 23 32 31 30 35 36 37 36 37 39 40 40 39 36 37 35 34 33 30 30 30 33 32 25 23 23 22 23 23 23 18 14 11

GFSCGP_850_spd_162.txt.gz
Wind_Speed
19 15 15 21 18 19 23 20 23 19 21 21 19 21 25 22 28 29 34 39 39 41 36 32 35 31 25 23 23 30 33 34 33 36 32 26 26 22 20 20 18 13 14 14
14 16 21 18 24 24 22 20 24 23 22 20 19 25 24 22 24 26 28 33 39 36 42 37 35 39 40 30 29 33 30 34 33 39 34 26 25 25 23 23 21 15 13 12
19 20 17 20 17 18 22 19 22 24 23 23 22 24 23 22 27 34 32 39 35 41 34 37 43 34 37 39 29 35 34 34 31 39 33 28 24 25 26 24 20 20 16 9
18 17 18 15 22 20 23 22 23 22 21 18 20 18 22 22 24 24 33 35 37 33 38 37 41 32 39 40 38 36 35 31 35 38 28 29 29 29 27 21 17 13 12 15
22 21 22 24 23 16 18 16 18 20 19 20 28 13 18 19 24 25 25 33 43 31 36 30 41 37 36 41 42 39 37 33 39 36 28 27 28 28 24 22 22 21 17 12
24 27 22 22 22 21 20 15 21 20 18 17 27 19 21 20 25 24 24 38 39 33 28 28 28 39 40 43 42 39 42 39 46 41 39 27 25 29 32 25 23 18 16 10
19 21 20 20 21 18 13 17 10 7 9 16 18 11 18 23 25 29 24 35 35 29 31 33 30 34 39 41 40 38 42 43 49 39 32 38 25 29 28 21 22 19 16 13
11 7 6 1 16 10 15 12 10 11 11 12 5 9 9 26 23 31 32 35 35 34 34 38 35 33 43 41 40 42 46 47 45 39 42 39 41 38 27 24 23 20 20 17
7 7 12 16 7 2 7 10 19 19 17 15 17 26 17 19 18 23 24 31 42 45 46 48 40 35 46 45 44 47 48 48 47 44 48 41 35 30 30 31 25 23 20 18
6 12 13 16 9 17 20 19 5 8 7 15 16 11 8 13 9 17 22 23 41 47 48 49 43 37 54 47 47 46 49 49 49 48 46 37 36 34 34 31 23 23 21 18
4 5 9 14 9 19 12 11 12 9 8 7 13 6 9 16 14 16 16 26 24 42 49 45 41 37 51 47 46 53 50 51 48 44 43 44 38 33 26 27 25 23 19 18
7 5 11 22 27 24 21 17 16 5 6 12 10 5 10 16 17 12 23 30 23 43 44 40 37 42 50 47 52 57 54 50 48 46 46 40 38 30 30 28 25 22 22 18
2 4 7 10 2 14 9 17 18 14 15 19 12 8 6 12 15 14 13 20 32 12 34 40 38 47 49 51 56 56 53 53 48 49 45 41 34 34 31 28 27 25 21 17
13 3 11 12 20 16 11 14 13 11 9 14 11 11 15 17 16 19 25 28 19 19 19 40 45 43 45 28 43 48 46 57 56 53 47 37 35 33 32 32 28 24 20 16
3 5 12 21 25 23 23 20 20 21 18 14 16 5 7 11 14 15 23 34 27 24 37 40 45 41 39 19 45 52 40 50 55 54 49 43 37 35 34 30 27 23 19 16
3 5 12 23 22 18 22 21 20 22 21 17 17 11 13 8 14 19 22 30 36 14 37 45 45 40 36 47 43 53 61 47 41 45 42 42 39 37 32 29 26 22 20 17
2 3 5 7 14 9 2 9 18 17 18 15 15 12 10 5 7 15 14 21 25 32 37 43 44 49 51 48 48 48 48 50 47 45 42 39 37 35 30 27 24 21 18 15
4 2 3 8 14 1 3 20 18 17 8 12 4 5 4 3 6 15 18 22 32 42 38 46 47 51 53 48 48 52 47 46 43 41 41 39 36 32 28 25 23 22 19 16
6 1 4 4 5 4 9 18 12 11 9 15 14 2 3 3 4 6 24 16 17 43 38 47 48 49 48 46 47 44 43 43 43 41 39 36 31 29 27 25 23 20 20 18
12 10 2 4 5 6 6 24 25 16 3 18 19 18 7 4 4 3 10 31 31 39 47 51 50 49 50 45 46 47 44 42 40 39 37 34 31 29 27 25 23 20 19 19
7 5 4 8 3 4 14 23 23 3 6 25 32 10 9 4 9 9 11 29 36 46 49 53 55 52 46 44 46 46 43 41 40 40 37 34 30 28 27 27 25 20 19 18
5 7 4 5 5 4 28 15 6 10 37 31 12 18 23 26 21 14 18 38 42 51 50 55 58 48 43 44 48 46 44 42 41 38 35 33 31 30 27 26 23 21 20 19
1 2 4 4 4 12 20 16 25 31 6 14 15 18 27 31 24 18 25 38 44 50 52 51 53 46 42 42 44 46 42 41 40 40 38 34 32 30 28 27 23 20 17 17
1 3 3 5 4 13 10 26 28 18 16 18 19 24 30 31 26 25 29 38 46 44 47 49 50 47 44 42 41 42 42 42 43 42 40 37 36 32 27 24 23 23 21 17
2 6 5 4 6 13 9 25 26 12 13 18 24 27 30 33 28 30 32 38 43 44 43 46 46 46 44 43 41 39 42 42 43 39 37 33 30 26 24 24 23 17 14 9
3 3 2 2 10 8 8 20 14 10 14 17 24 28 32 35 30 32 36 36 39 41 41 44 45 45 43 42 40 40 40 37 35 35 32 28 26 23 24 23 22 18 17 15

GFSCGP_850_spd_165.txt.gz
Wind_Speed
23 9 8 14 15 19 9 18 20 20 17 4 7 7 10 18 21 16 29 31 31 34 40 39 33 22 24 15 30 43 45 46 48 42 37 33 28 25 22 21 17 11 15 15
10 11 11 17 15 12 19 17 23 22 15 14 12 15 14 17 17 21 18 24 32 35 36 40 35 30 22 20 23 29 30 39 47 39 33 35 29 24 25 22 16 12 13 15
11 13 17 16 13 17 16 16 15 18 15 16 12 14 11 12 16 28 29 26 29 37 41 42 42 38 28 29 30 32 28 33 24 24 31 30 29 26 28 24 21 16 16 15
10 10 16 15 16 7 14 12 19 17 14 12 3 14 17 10 14 13 22 29 32 34 37 46 46 45 40 33 34 34 36 27 27 24 31 32 36 34 33 30 24 20 18 15
14 12 15 19 19 16 20 16 8 13 12 12 10 5 28 5 14 20 17 28 35 38 34 39 44 50 49 39 42 39 37 36 34 36 41 40 29 36 32 29 23 21 15 14
17 22 17 16 18 17 18 18 10 12 7 12 11 7 26 13 17 16 16 26 33 36 45 39 37 50 49 42 48 42 38 38 41 38 43 32 32 38 34 26 24 21 19 15
15 14 18 14 17 14 10 4 3 3 3 11 3 7 18 9 18 20 18 29 30 39 40 39 41 44 46 44 49 46 43 44 40 40 40 40 44 27 29 24 22 23 17 15
2 6 11 16 8 2 13 3 4 6 4 4 2 7 10 15 24 30 36 32 35 38 39 42 37 29 39 53 51 51 48 45 42 45 39 38 39 31 28 24 24 22 20 13
5 5 21 20 15 7 2 3 3 6 8 8 8 16 16 6 7 18 17 30 29 25 37 43 44 26 41 53 56 53 47 46 46 47 43 40 43 43 35 28 26 23 17 17
3 11 9 16 14 8 10 5 4 3 5 5 6 7 2 6 6 12 15 12 18 26 31 43 34 27 40 50 56 52 49 48 50 50 48 39 38 37 29 24 27 21 20 21
5 6 9 9 7 12 5 6 5 7 7 5 3 4 1 6 7 9 14 16 11 25 22 36 39 38 36 48 52 56 49 48 53 53 41 42 40 35 33 35 29 24 24 22
2 4 6 10 22 14 17 16 13 6 5 1 1 7 13 4 7 8 15 5 5 22 29 37 52 41 37 53 55 50 47 46 53 47 47 49 42 44 41 34 27 27 29 23
3 4 5 5 3 1 3 2 10 9 11 13 8 7 4 9 9 10 13 19 14 23 40 29 60 37 46 56 54 50 44 49 50 56 55 50 48 44 37 32 32 32 29 24
16 2 7 8 17 14 19 17 15 6 4 5 7 16 11 7 10 7 11 7 12 36 47 24 47 38 52 46 47 45 45 52 57 57 55 53 46 41 38 38 37 31 28 24
5 5 7 18 22 21 23 22 20 17 13 9 14 17 18 6 11 2 7 11 18 30 31 22 41 41 40 41 36 38 46 54 65 61 59 51 44 42 43 41 37 31 25 22
5 4 4 16 19 14 18 17 17 19 16 14 17 21 18 6 14 10 13 2 11 24 2 15 49 46 37 35 34 38 38 42 54 60 55 50 49 47 45 37 33 30 26 24
3 2 3 7 12 20 2 12 10 14 10 11 11 17 15 3 5 7 14 18 13 11 18 18 46 52 45 42 45 41 49 41 53 49 53 51 50 44 39 36 31 29 28 26
4 2 3 7 10 3 2 17 12 15 10 10 12 17 13 6 6 5 7 16 10 4 27 29 45 54 54 53 44 39 40 38 27 39 46 46 46 42 37 35 32 31 31 27
4 2 3 3 5 6 4 14 12 9 11 10 11 15 19 13 7 6 12 6 9 4 33 39 45 50 51 46 48 52 38 46 40 42 42 42 39 41 41 37 34 31 30 27
6 5 3 3 4 3 3 21 27 17 5 13 17 19 19 24 3 2 7 7 9 17 46 50 56 60 63 66 51 55 53 52 48 45 42 39 41 41 38 34 33 32 29 28
5 3 3 5 4 3 9 22 28 3 6 29 32 29 26 7 1 4 10 16 16 37 51 52 58 58 60 66 61 55 49 46 45 45 43 42 40 39 36 36 34 31 29 25
3 4 3 4 3 4 25 9 6 11 38 24 14 6 21 14 10 15 26 25 20 46 51 56 57 57 54 57 62 55 52 51 49 47 46 44 41 38 37 37 33 28 25 22
1 1 2 2 4 10 20 12 21 29 24 17 14 12 15 17 17 24 26 24 35 45 49 54 56 56 53 56 60 60 55 53 52 50 48 45 44 43 41 39 36 33 24 20
1 3 2 4 0 9 15 23 28 28 13 11 11 15 21 19 29 26 25 23 47 42 47 56 56 55 55 56 55 56 53 52 53 51 48 46 44 40 36 32 30 30 20 16
0 4 3 5 5 15 5 23 29 22 10 8 11 16 21 29 30 26 29 28 44 42 45 50 53 55 55 55 53 52 53 51 50 47 45 43 40 38 37 32 26 22 18 13
1 3 2 2 8 6 15 25 19 16 9 9 15 18 23 31 32 34 29 35 43 44 48 50 49 50 50 48 46 45 44 43 46 47 43 40 38 35 32 30 32 28 26 24

GFSCGP_850_spd_168.txt.gz
Wind_Speed
18 0 7 13 12 14 9 13 14 16 16 10 15 17 15 13 14 18 28 24 30 32 38 35 35 24 11 18 33 42 34 39 49 38 30 30 27 21 21 17 13 10 15 17
4 7 15 13 16 12 11 16 19 19 16 13 14 13 12 9 8 21 25 30 31 32 30 30 33 20 12 19 30 43 40 49 39 32 34 34 24 20 18 17 16 12 16 17
6 9 8 4 7 9 14 16 16 15 19 15 7 18 10 6 8 22 28 35 35 33 35 30 27 27 17 26 33 37 45 43 38 47 38 30 23 19 22 25 22 19 18 19
6 4 6 10 12 7 14 8 12 13 6 5 4 15 21 11 12 14 24 28 35 31 32 35 29 27 28 26 32 40 41 36 43 43 41 23 31 30 25 26 28 22 19 17
8 8 8 12 17 14 17 14 17 17 13 3 5 7 24 8 11 12 11 27 35 41 39 36 34 32 29 25 33 34 38 38 44 44 50 43 38 35 32 29 24 21 20 16
9 7 6 13 10 11 14 13 7 6 2 12 14 10 17 9 17 17 12 26 34 32 34 39 36 37 32 30 31 39 38 40 45 42 36 35 42 37 34 31 25 22 18 14
6 4 3 5 8 7 12 5 3 3 1 11 13 12 19 8 11 11 16 20 28 36 37 33 41 36 37 29 31 40 43 43 40 38 33 40 43 31 33 27 23 22 22 21
4 7 5 8 9 5 2 5 3 5 4 4 3 7 6 12 14 23 26 24 29 35 32 36 35 34 38 30 33 41 46 50 48 46 41 40 41 33 30 28 20 24 28 20
5 6 15 21 11 7 4 5 6 5 3 6 5 7 9 14 8 6 11 14 21 29 36 37 34 38 36 36 37 46 45 49 47 44 38 41 39 39 41 36 30 27 26 22
2 13 10 9 7 12 12 7 4 3 3 5 4 6 8 4 4 6 10 11 24 25 29 28 15 32 36 37 42 48 47 50 48 44 41 42 46 40 41 38 36 22 31 26
4 6 6 6 5 5 3 2 1 3 4 4 4 5 7 4 1 5 9 21 22 27 15 15 12 11 32 40 49 52 51 50 48 43 52 45 47 51 45 41 36 36 29 26
3 4 6 10 19 13 11 8 6 4 4 5 3 5 10 3 4 1 13 23 18 14 18 30 20 20 25 37 43 50 49 52 48 45 47 47 51 49 45 43 42 32 31 26
4 4 4 6 3 3 3 6 6 6 4 10 10 4 2 4 9 2 13 14 18 15 14 28 27 20 20 40 40 44 45 47 45 43 50 57 55 49 44 44 37 36 31 27
10 4 7 9 13 6 11 17 15 11 5 8 15 12 13 10 13 8 13 10 17 17 13 17 22 23 19 41 38 37 38 42 42 46 51 54 53 45 44 41 40 34 31 27
7 5 7 16 19 20 20 20 20 15 17 13 18 13 14 15 16 7 9 10 21 14 9 19 26 26 23 38 38 37 39 42 47 50 51 50 45 48 45 41 38 37 29 23
2 3 4 12 16 15 15 10 15 6 15 18 20 18 8 15 12 5 8 11 16 19 23 21 19 21 30 33 36 37 41 44 49 54 53 51 52 47 39 39 37 31 27 25
2 3 3 5 9 14 3 7 10 13 12 6 5 3 6 8 10 6 15 20 21 21 20 10 22 33 35 38 38 41 49 54 56 56 55 56 50 45 42 38 34 31 30 27
3 2 3 5 9 3 4 10 9 14 17 11 12 13 12 15 22 25 13 15 22 8 13 19 37 42 44 49 52 46 47 54 59 60 57 56 44 44 41 36 33 34 33 29
5 1 4 2 3 6 4 6 12 7 9 3 15 17 15 24 21 8 11 10 6 13 8 31 47 56 58 65 63 54 52 56 59 56 47 42 50 46 40 39 38 35 33 30
6 5 3 2 4 4 4 16 24 11 5 16 22 20 18 14 5 4 15 9 7 9 9 30 54 63 64 62 53 53 51 50 44 41 46 47 48 42 40 41 39 36 32 30
6 3 3 4 4 1 8 19 27 3 7 29 33 33 25 5 6 17 13 8 7 3 34 50 60 64 63 62 65 60 57 48 52 50 47 42 40 42 42 38 36 33 31 29
3 4 2 3 3 5 16 6 4 10 29 32 32 26 18 3 9 9 11 14 19 40 58 54 56 63 64 63 66 64 57 53 49 48 46 43 42 39 39 39 36 31 28 27
2 3 2 4 5 5 12 11 20 24 27 20 25 21 9 3 4 6 14 28 27 39 52 52 56 63 52 56 60 56 53 52 52 50 49 47 45 43 39 38 34 30 28 28
1 2 3 4 0 5 17 13 23 27 31 21 17 14 9 10 13 31 33 36 33 41 54 55 57 57 53 50 51 50 51 52 51 52 49 48 47 44 39 35 30 28 27 28
2 3 3 8 10 14 3 23 28 27 22 16 11 14 12 19 25 38 40 38 30 42 56 53 56 57 55 58 57 54 51 51 52 49 49 48 44 39 36 33 28 27 27 23
3 3 2 3 8 7 15 23 23 24 19 12 13 18 19 28 32 42 46 41 39 43 56 51 54 56 54 55 53 51 50 50 52 54 51 47 44 43 39 36 38 31 29 26

GFSCGP_850_spd_171.txt.gz
Wind_Speed
6 2 7 12 10 14 12 11 11 12 10 6 13 16 18 16 19 18 25 21 25 30 29 20 15 9 10 15 31 53 48 43 40 37 33 28 24 23 22 19 15 18 17 15
2 7 15 11 9 8 11 13 14 9 9 6 14 18 18 13 12 24 26 26 25 27 28 24 17 9 9 13 22 40 45 44 43 42 37 31 26 22 22 20 16 15 15 15
8 9 3 7 5 7 7 6 10 13 17 12 10 16 11 8 10 20 28 31 26 26 26 24 17 12 9 15 19 33 46 47 45 38 31 28 26 23 21 21 19 18 14 14
6 6 4 7 8 7 15 10 12 11 8 11 4 19 15 8 14 13 27 33 35 34 33 28 21 15 12 20 21 28 48 45 40 39 35 32 32 29 29 24 19 18 15 16
9 4 8 8 12 12 13 13 14 12 11 13 3 7 2 4 12 14 13 30 37 35 29 30 27 25 16 15 26 26 33 38 38 43 36 31 33 32 34 25 23 22 21 17
5 10 5 5 3 1 7 5 4 0 2 12 11 11 12 8 13 9 7 25 35 37 29 28 20 21 21 17 23 31 35 35 41 42 35 31 33 33 28 27 28 29 22 17
6 4 1 4 4 6 7 5 4 3 1 8 7 11 19 7 7 7 9 19 31 31 28 26 27 24 19 18 22 30 36 41 43 40 38 41 35 28 32 31 29 24 22 17
3 6 5 7 6 6 7 6 3 6 4 5 5 6 6 14 18 18 17 23 26 28 25 27 24 23 21 17 21 26 36 42 43 39 46 46 32 32 30 27 21 29 22 8
4 6 14 19 20 3 2 4 5 5 6 8 5 6 6 10 10 4 3 4 12 22 25 25 23 27 22 21 18 23 34 43 44 44 46 37 34 37 27 24 33 29 18 10
4 11 9 7 5 10 9 5 3 4 4 5 4 4 6 4 1 3 4 7 18 23 29 28 24 21 26 25 24 26 27 40 44 47 49 42 37 33 31 35 40 30 26 24
3 5 5 6 6 5 1 2 2 3 3 3 4 4 5 6 4 5 7 12 18 23 28 26 15 12 16 23 27 29 29 39 47 45 47 42 39 37 38 41 38 34 23 21
7 4 6 16 18 10 9 11 5 4 4 4 3 11 9 4 5 5 9 21 28 27 30 27 22 23 17 17 29 29 32 40 50 46 43 42 45 42 43 44 37 28 21 27
4 3 5 8 5 2 2 4 8 8 6 12 8 6 2 7 8 15 14 26 28 30 28 30 29 27 23 12 26 28 33 43 51 48 47 47 42 48 48 41 37 27 28 27
9 7 11 12 12 7 9 12 14 8 4 10 17 23 15 17 19 14 23 26 31 28 26 27 27 19 29 7 25 29 37 43 50 52 50 46 47 49 42 41 37 30 28 29
6 5 7 12 18 20 21 20 18 16 17 11 19 17 16 9 11 19 31 27 21 22 25 21 24 25 25 9 27 33 40 44 45 52 50 46 46 44 44 43 38 31 33 28
2 3 3 6 18 17 20 13 10 14 12 10 14 19 8 10 16 19 23 22 16 25 25 28 24 23 24 13 30 36 42 47 52 52 48 46 46 49 50 46 39 37 33 31
1 2 3 5 7 10 6 6 5 13 13 10 7 5 12 13 15 16 26 29 29 29 26 32 17 20 23 21 38 40 45 45 47 49 48 49 48 52 47 44 34 36 34 31
3 2 2 7 7 3 4 5 5 13 18 8 11 13 16 15 25 32 41 33 29 22 17 14 20 22 24 36 41 42 44 49 50 49 52 52 54 54 48 42 42 38 33 28
4 2 3 4 2 7 7 4 8 10 11 2 12 15 18 28 27 31 29 15 18 13 9 5 35 43 44 49 51 52 56 57 59 60 58 60 56 49 44 41 36 34 34 31
4 4 3 3 4 4 1 14 18 10 5 16 20 19 21 26 9 14 23 23 16 3 4 30 45 60 60 59 60 61 56 56 58 60 66 62 54 46 45 41 40 37 32 29
4 2 3 4 4 6 6 13 18 2 6 28 30 32 28 15 14 31 36 28 14 7 8 35 52 61 66 63 63 60 55 49 53 56 58 54 47 45 44 43 40 33 29 28
3 3 2 2 4 6 11 5 5 8 21 26 31 35 32 32 33 27 26 22 10 17 27 49 53 56 63 60 57 56 52 53 56 50 48 52 47 47 44 39 36 33 30 28
3 4 2 4 5 3 7 11 14 24 27 24 32 34 33 30 28 19 6 4 32 44 42 55 57 57 56 57 59 62 57 51 48 51 48 49 49 47 42 38 35 33 28 26
3 2 3 2 3 5 21 10 21 29 30 34 33 31 27 23 9 17 21 28 40 42 51 54 61 63 60 63 68 69 59 54 55 53 51 49 47 44 39 34 30 29 28 27
2 1 3 6 10 15 4 20 30 34 31 31 30 23 19 10 17 31 35 34 30 42 50 51 55 61 60 64 65 60 53 53 54 54 53 51 46 41 38 34 31 30 28 24
6 4 3 4 6 9 17 26 28 27 29 30 26 17 12 14 29 37 36 36 30 43 47 52 57 61 59 59 56 52 52 52 54 55 53 49 45 43 41 40 38 31 29 26